Regional Weather Roundup
Issued by NWS State College, PA

Home | Current Version | Previous Version | Text Only | Print | Product List | Glossary Off
Versions: 1 2 3 4 5 6 7 8 9 10 11 12 13 14 15 16 17 18 19 20 21 22 23 24 25 26 27 28 29 30 31 32 33 34 35 36 37 38 39 40 41 42 43 44 45 46 47 48 49 50

000
ASUS41 KCTP 090010
RWRCTP

REGIONAL WEATHER ROUNDUP
NATIONAL WEATHER SERVICE STATE COLLEGE PA
700 PM EST MON FEB 08 2016

Note: "fair" indicates few or no clouds below 12,000 feet with no
significant weather and/or obstructions to visibility.

* = STATION THAT DOES NOT REPORT PRECIPITATION /E.G. RAIN...SNOW...ETC/
    THUNDER OR FOG.

PAZ002>004-007>009-013>016-020>023-029>032-090100-
WESTERN PENNSYLVANIA

CITY           SKY/WX    TMP DP  RH WIND       PRES   REMARKS
ERIE           LGT RAIN  36  33  89 CALM      29.57S FOG
MEADVILLE      LGT SNOW  34  30  85 S6        29.54S FOG
FRANKLIN*      CLOUDY    32  28  86 S7        29.57S
NEW CASTLE     CLOUDY    35  31  85 W9        29.59R
BEAVER COUNTY  CLOUDY    34  32  93 W6        29.58R
BUTLER*        MOCLDY    34  30  86 SW8       29.61S
PITTSBURGH INT CLOUDY    34  31  88 SW7       29.59R
PITTSBURGH     CLOUDY    36  31  82 SW12      29.59R
INDIANA*       CLOUDY    34  34 100 S8        29.62S FOG
LATROBE        CLOUDY    36  36 100 CALM      29.61S
WASHINGTON CO* CLOUDY    34  30  86 SW8       29.61R
$$

PAZ004>006-010>012-017>019-024>028-033>037-041-042-045-046-049>053-090100-
CENTRAL PENNSYLVANIA

CITY           SKY/WX    TMP DP  RH WIND       PRES   REMARKS
BRADFORD       FLURRIES  32  25  75 SE12      29.56R
DUBOIS         LGT SNOW  31  28  89 S7G18     29.57R VSB 3/4
CLEARFIELD     CLOUDY    36  23  59 S8        29.61R
JOHNSTOWN      LGT SNOW  31  27  85 S5        29.57R FOG
ALTOONA        CLOUDY    36  22  56 S6        29.61S
STATE COLLEGE  FLURRIES  36  27  69 S8        29.64R
WILLIAMSPORT   CLOUDY    40  25  55 E9        29.66S
SELINSGROVE    CLOUDY    38  26  62 SE8       29.68S
FT INDIANTOWN  CLOUDY    37  28  71 NE1       29.70R
CAPITAL CITY   LGT RAIN  39  29  67 SE13      29.70R
HARRISBURG     LGT RAIN  38  29  70 SE14      29.70R
YORK           CLOUDY    38  30  73 SE10      29.68S
$$

PAZ038>040-043-044-047-048-054-055-060>062-067>071-090100-
EASTERN PENNSYLVANIA

CITY           SKY/WX    TMP DP  RH WIND       PRES   REMARKS
SCRANTON       CLOUDY    36  17  46 SE12G18   29.67R
MOUNT POCONO   CLOUDY    29  14  53 SE8       29.66R
ALLENTOWN      CLOUDY    38  19  46 E10       29.72S
QUAKERTOWN*    MOCLDY    37  25  60 SE7       29.73R
READING        CLOUDY    39  26  59 S6        29.71S
LANCASTER      CLOUDY    36  29  75 SE7       29.71R
COATESVILLE    CLOUDY    37  28  70 SE3       29.72S
POTTSTOWN      CLOUDY    37  26  64 CALM      29.74R
BLUE BELL        N/A     34  25  69 E5        29.74R
DOYLESTOWN     CLOUDY    34  22  61 CALM      29.73R
WILLOW GROVE   NOT AVBL
NORTH PHILA    CLOUDY    37  23  56 SE10      29.78R
PHILADELPHIA   CLOUDY    38  24  57 E7        29.76R
$$



USA.gov is the U.S. government's official web portal to all federal, state and local government web resources and services.